[[{"header":{"parameterUnit":"m.s-1","parameterCategory":1,"la1":30.2991,"la2":30.254,"lo1":-89.0895,"lo2":-89.0444,"dy":0.0017,"dx":0.0017,"nx":28,"ny":28,"refTime":"2025-07-11T03:00:00:Z","depth":0,"parameterNumber":2,"parameterNumberName":"U-component_of_WINDS"},"data":[0,0,0,0,0,0,0,0,0,0,0,0,0,0,0,0,0,0,0,0,0,0,0,0,0,0,0,0,0,0,0,0,0,0,0,0,0,0,0,0,0,0,0,0,0,0,0,0,0,0,0,0,0,0,0,0,0,0,2.3758,2.3759,0,2.3818,2.3819,2.3819,2.379,2.3789,2.3787,2.3786,2.3847,2.385,2.3853,0,0,0,0,0,0,0,0,0,0,0,0,0,2.3617,2.362,2.3758,2.3759,2.376,2.3818,2.3819,2.382,2.3791,2.3789,2.3787,2.3785,2.3846,2.385,2.3853,0,0,0,0,0,0,0,0,0,0,0,0,0,2.3678,2.3621,2.3758,2.3752,2.3752,2.3818,2.3819,2.382,2.3791,2.3789,2.3786,2.3784,2.3845,2.3849,2.3854,2.3928,0,0,2.3868,2.387,0,0,0,0,0,0,0,0,2.3675,2.3683,2.3752,2.3753,2.3753,2.3794,2.3791,2.3856,2.3792,2.3776,2.3786,2.3783,2.3831,2.3837,2.3853,2.3931,2.3934,2.3868,2.3871,2.3873,2.3874,0,0,0,0,0,0,0,2.367,2.368,2.3782,2.3753,2.3754,2.3746,2.3752,2.3804,2.3816,2.3778,2.3776,2.3783,2.3831,2.3849,2.3854,2.3935,2.3868,2.3872,2.3875,2.3877,2.4073,2.4075,0,0,0,0,0,0,2.3667,2.3677,2.378,2.3784,2.3707,2.3751,2.3757,2.3783,2.3815,2.3818,2.3785,2.3781,2.3842,2.3849,2.3856,2.3943,2.3873,2.3877,2.388,2.4071,2.4074,2.4076,0,0,0,0,0,0,2.3664,2.3676,2.3778,2.373,2.3742,2.3755,2.3785,2.3786,2.3803,2.3821,2.3823,2.3801,2.3841,2.385,2.391,2.3945,2.3879,2.3884,2.4068,2.4071,2.4075,2.4118,0,0,0,0,0,0,2.366,2.3675,2.3704,2.3731,2.3745,2.3831,2.3787,2.3789,2.3811,2.3808,2.3836,2.3839,2.3839,2.3903,2.3914,2.395,2.3887,2.4065,2.4069,2.4074,2.4114,2.4123,2.4131,0,0,0,0,0,2.3655,2.3715,2.3706,2.3718,2.3782,2.3833,2.3841,2.384,2.3815,2.3843,2.3854,2.3838,2.394,2.3909,2.3922,2.3959,2.4062,2.4068,2.4073,2.411,2.4121,2.4131,0,0,0,0,0,0,2.3693,2.3718,2.3709,2.3779,2.3804,2.3828,2.3864,2.3853,2.3885,2.388,2.3878,2.3885,2.3946,2.3959,2.3925,2.4031,2.3997,2.4005,2.402,2.4031,2.4039,2.4034,2.3891,0,0,0,0,0,2.3709,2.3749,2.3769,2.3829,2.3842,2.3851,2.3873,2.387,2.3896,2.3906,2.3922,2.3947,2.3984,2.4009,2.4044,2.4116,2.412,2.4148,2.4156,2.4163,2.417,2.4205,2.4217,2.4094,2.4094,2.4094,0,0,2.3744,2.3763,2.3788,2.3837,2.3856,2.3896,2.386,2.3905,2.3934,2.3913,2.397,2.3982,2.401,2.4075,2.4104,2.4088,2.4204,2.417,2.4175,2.4178,2.4212,2.4223,2.4234,2.4098,2.4097,2.4097,0,0,2.3826,2.3846,2.3897,2.3916,2.3944,2.3949,2.3962,2.3987,2.3994,2.4051,2.4035,2.4069,2.4135,2.4154,2.4172,2.426,2.4245,2.4272,2.4316,2.435,2.436,2.4368,2.4397,2.4407,2.4279,2.4279,2.4279,0,2.3866,2.3926,2.3924,2.3969,2.399,2.3973,2.4023,2.4042,2.408,2.4095,2.4076,2.4155,2.4173,2.424,2.4261,2.4278,2.429,2.4268,2.4359,2.4367,2.4375,2.4402,2.4413,2.4282,2.4281,2.4281,2.4281,0,2.3971,2.4013,2.405,2.4087,2.4112,2.416,2.4164,2.419,2.4185,2.4191,2.4248,2.4268,2.4306,2.4322,2.4319,2.4389,2.4377,2.4359,2.4324,2.439,2.4415,2.4425,2.4285,2.4284,2.4284,2.4283,0,0,2.4079,2.4113,2.4126,2.4141,2.4171,2.4202,2.4249,2.4285,2.4306,2.4333,2.437,2.4424,2.4406,2.4427,2.4425,2.4456,2.452,2.4433,2.4433,2.4446,2.4595,2.4607,2.4619,2.4511,2.4513,2.4515,2.4592,0,2.4161,2.4241,2.424,2.4314,2.435,2.4334,2.4373,2.4395,2.4402,2.4434,2.4442,2.4479,2.4455,2.4466,2.4496,2.4506,2.4549,2.4501,2.4543,2.4545,2.4534,2.4633,2.4646,2.4718,2.4602,2.4604,2.4605,0,2.4268,2.4297,2.4374,2.4395,2.4411,2.4446,2.4478,2.4509,2.4533,2.4536,2.4558,2.455,2.4595,2.456,2.4621,2.4588,2.4605,2.4612,2.4615,2.4617,2.4577,2.4635,2.4741,2.4751,2.4621,2.462,2.4619,0,2.4335,2.4394,2.4447,2.4461,2.4488,2.4512,2.4525,2.4546,2.4567,2.4595,2.4608,2.4641,2.4659,2.4684,2.4685,2.466,2.4745,2.4711,2.4747,2.4747,2.4764,2.4762,2.4872,2.478,2.478,2.478,2.4779,0,2.4426,2.4473,2.4477,2.4509,2.456,2.4558,2.4609,2.4619,2.4638,2.467,2.4659,2.469,2.469,2.4722,2.4723,2.4771,2.478,2.4782,2.4781,2.4782,2.4781,2.4791,2.4785,2.4782,2.4782,2.4781,2.4781,0,2.4509,2.4514,2.4569,2.459,2.4596,2.4633,2.4649,2.4679,2.4685,2.4727,2.4736,2.4745,2.4781,2.4785,2.4827,2.4828,2.4885,2.4881,2.4877,2.4875,2.491,2.4905,2.5027,2.5042,2.4943,2.4944,2.4945,0,2.4565,2.46,2.4624,2.4645,2.4658,2.4692,2.4713,2.4712,2.4734,2.4762,2.4788,2.4823,2.485,2.4908,2.4918,2.495,2.4944,2.4985,2.4949,2.4947,2.4941,2.4938,2.494,2.4991,2.4992,2.4993,2.4994,0,2.4663,2.4663,2.4693,2.4724,2.4749,2.4773,2.4796,2.4814,2.4815,2.4841,2.4877,2.4898,2.494,2.4974,2.5004,2.5016,2.5004,2.5005,2.5014,2.5014,2.5009,2.5009,2.4893,2.5002,2.5001,2.5,2.5,2.5,2.4732,2.4761,2.4782,2.4815,2.4832,2.4853,2.4881,2.489,2.492,2.4953,2.4951,2.499,2.5011,2.505,2.5065,2.5094,2.5081,2.5095,2.5098,2.5101,2.5103,2.5006,2.5101,2.51,2.51,2.51,2.51,0,2.4826,2.4838,2.4869,2.4901,2.4926,2.4914,2.4937,2.496,2.4994,2.5014,2.5041,2.5081,2.5113,2.5125,2.5156,2.5177,2.5173,2.5185,2.5182,2.5185,2.5115,2.5103,2.5188,2.5188,2.5188,2.5188,2.5188,2.5188,2.4879,2.4926,2.4929,2.4984,2.4996,2.5033,2.5048,2.5066,2.5082,2.5127,2.5153,2.5161,2.5177,2.5209,2.5237,2.5239,2.525,2.5265,2.5265,2.5199,2.519,2.5181,2.5169,2.5268,2.5268,2.5331,2.5332,2.5332]},{"header":{"parameterUnit":"m.s-1","parameterCategory":1,"la1":30.2991,"la2":30.254,"lo1":-89.0895,"lo2":-89.0444,"dy":0.0017,"dx":0.0017,"nx":28,"ny":28,"refTime":"2025-07-11T03:00:00:Z","depth":0,"parameterNumber":3,"parameterNumberName":"V-component_of_WINDS"},"data":[0,0,0,0,0,0,0,0,0,0,0,0,0,0,0,0,0,0,0,0,0,0,0,0,0,0,0,0,0,0,0,0,0,0,0,0,0,0,0,0,0,0,0,0,0,0,0,0,0,0,0,0,0,0,0,0,0,0,4.1555,4.1556,0,4.1609,4.161,4.161,4.1575,4.1573,4.1571,4.157,4.1621,4.1624,4.1627,0,0,0,0,0,0,0,0,0,0,0,0,0,4.1416,4.1418,4.1555,4.1556,4.1556,4.1609,4.161,4.161,4.1575,4.1573,4.1571,4.1569,4.162,4.1624,4.1627,0,0,0,0,0,0,0,0,0,0,0,0,0,4.1473,4.1419,4.1555,4.1545,4.1545,4.1609,4.161,4.1611,4.1575,4.1573,4.1571,4.1568,4.1619,4.1623,4.1628,4.1703,0,0,4.1641,4.1643,0,0,0,0,0,0,0,0,4.147,4.1479,4.1546,4.1546,4.1546,4.1583,4.1579,4.1642,4.1576,4.1564,4.157,4.1567,4.161,4.1615,4.163,4.1706,4.1708,4.1641,4.1644,4.1646,4.1647,0,0,0,0,0,0,0,4.1466,4.1476,4.1576,4.1547,4.1547,4.1536,4.1542,4.1591,4.16,4.1565,4.1562,4.1569,4.161,4.1626,4.1631,4.1708,4.1641,4.1645,4.1648,4.1649,4.1845,4.1848,0,0,0,0,0,0,4.1464,4.1473,4.1574,4.1578,4.1501,4.1541,4.1547,4.1573,4.1599,4.1601,4.1571,4.1567,4.162,4.1626,4.1633,4.1721,4.1646,4.165,4.1652,4.1843,4.1846,4.1849,0,0,0,0,0,0,4.1461,4.1473,4.1572,4.1525,4.1537,4.1546,4.1576,4.1576,4.1592,4.1604,4.1605,4.1587,4.1618,4.1627,4.1686,4.1723,4.1652,4.1656,4.184,4.1844,4.1847,4.19,0,0,0,0,0,0,4.1457,4.1472,4.1503,4.1526,4.1539,4.1626,4.1578,4.1578,4.16,4.1596,4.1619,4.1621,4.1617,4.1679,4.169,4.1727,4.1659,4.1836,4.1841,4.1846,4.1895,4.1905,4.1914,0,0,0,0,0,4.1452,4.1515,4.1504,4.1517,4.1578,4.1628,4.1636,4.1631,4.1604,4.1633,4.164,4.162,4.1717,4.1686,4.1697,4.1736,4.1834,4.184,4.1846,4.189,4.1903,4.1913,0,0,0,0,0,0,4.1494,4.1518,4.1506,4.1579,4.1602,4.1622,4.1659,4.1645,4.1675,4.167,4.1662,4.1667,4.1728,4.1738,4.1703,4.181,4.1771,4.1779,4.1801,4.1813,4.1822,4.1818,4.1663,0,0,0,0,0,4.1512,4.1553,4.1571,4.1632,4.1645,4.165,4.1672,4.1667,4.169,4.1699,4.1711,4.1732,4.1767,4.1791,4.1824,4.1896,4.1899,4.1929,4.1938,4.1946,4.1953,4.1989,4.2002,4.1868,4.1868,4.1868,0,0,4.1549,4.1567,4.1593,4.1641,4.1659,4.1699,4.1658,4.1703,4.1733,4.1705,4.1761,4.1771,4.1794,4.1859,4.1889,4.187,4.199,4.1953,4.1959,4.1962,4.1997,4.2009,4.202,4.1872,4.1871,4.1871,0,0,4.1637,4.1656,4.1708,4.1727,4.1754,4.1756,4.1769,4.1791,4.1797,4.1853,4.1833,4.1867,4.1928,4.1945,4.1962,4.2055,4.2037,4.2066,4.2115,4.2151,4.2161,4.217,4.2201,4.2213,4.2073,4.2073,4.2073,0,4.1679,4.1741,4.1737,4.1783,4.1804,4.1782,4.1834,4.1851,4.1887,4.1901,4.188,4.1955,4.197,4.2037,4.206,4.2075,4.2087,4.2063,4.216,4.2169,4.2178,4.2207,4.2219,4.2076,4.2076,4.2076,4.2075,0,4.1791,4.1834,4.1873,4.1909,4.1934,4.1983,4.1984,4.2009,4.2002,4.2006,4.2062,4.2079,4.2114,4.213,4.2123,4.2196,4.2183,4.2162,4.2122,4.2194,4.2221,4.2233,4.2081,4.208,4.2079,4.2078,0,0,4.1907,4.1939,4.1953,4.1969,4.1996,4.2028,4.2075,4.2111,4.2132,4.2157,4.2194,4.2246,4.2226,4.2245,4.2239,4.227,4.234,4.2244,4.2244,4.226,4.242,4.2435,4.2449,4.2329,4.2331,4.2333,4.2417,0,4.1995,4.2078,4.2075,4.2151,4.2189,4.2169,4.2209,4.2229,4.2234,4.2266,4.2271,4.2307,4.2278,4.2289,4.232,4.2325,4.2372,4.2319,4.2362,4.2363,4.2355,4.2463,4.248,4.2559,4.2428,4.243,4.2431,0,4.2109,4.2138,4.2219,4.2239,4.2255,4.2292,4.2323,4.2354,4.2376,4.2377,4.2398,4.2387,4.2432,4.2392,4.2453,4.2417,4.2434,4.244,4.2442,4.2445,4.2401,4.2467,4.2584,4.2595,4.2449,4.2447,4.2446,0,4.2183,4.2243,4.2298,4.2312,4.2338,4.2364,4.2375,4.2395,4.2415,4.2442,4.2455,4.2487,4.2503,4.2527,4.2524,4.2496,4.2585,4.2546,4.2585,4.2585,4.2604,4.2603,4.2724,4.2618,4.2618,4.2617,4.2617,0,4.2281,4.233,4.2332,4.2366,4.242,4.2415,4.2468,4.2477,4.2494,4.2528,4.2512,4.2543,4.2538,4.2569,4.2566,4.2616,4.2624,4.2625,4.2623,4.2625,4.2625,4.2635,4.2629,4.2621,4.262,4.2619,4.2619,0,4.2372,4.2376,4.2435,4.2454,4.246,4.2499,4.2514,4.2545,4.2549,4.2591,4.2601,4.2606,4.2642,4.2641,4.2682,4.268,4.274,4.2733,4.2733,4.2731,4.277,4.2766,4.2901,4.2917,4.2802,4.2803,4.2804,0,4.2434,4.2472,4.2495,4.2517,4.253,4.2566,4.2587,4.2583,4.2605,4.2632,4.2659,4.2693,4.2721,4.2778,4.2784,4.2815,4.2807,4.2852,4.2811,4.2812,4.2805,4.2803,4.2805,4.286,4.2861,4.2862,4.2863,0,4.2542,4.2541,4.2573,4.2606,4.2631,4.2656,4.2679,4.2698,4.2696,4.2721,4.2758,4.2779,4.282,4.2854,4.2883,4.2892,4.2877,4.2876,4.2886,4.2888,4.2886,4.2886,4.2753,4.2873,4.2872,4.2871,4.287,4.287,4.2619,4.2651,4.2672,4.2707,4.2724,4.2745,4.2775,4.2782,4.2813,4.2847,4.2842,4.2883,4.2901,4.2939,4.2951,4.2981,4.2965,4.2981,4.2984,4.2988,4.2991,4.2883,4.2987,4.2986,4.2986,4.2986,4.2986,0,4.2724,4.2737,4.277,4.2802,4.2829,4.2814,4.2838,4.2861,4.2897,4.2917,4.2944,4.2984,4.3017,4.3025,4.3056,4.3078,4.3071,4.3086,4.3083,4.3085,4.3005,4.2992,4.309,4.309,4.309,4.309,4.309,4.309,4.2783,4.2835,4.2837,4.2896,4.2908,4.2948,4.2963,4.2981,4.2996,4.3043,4.307,4.3076,4.309,4.3121,4.3149,4.3151,4.3162,4.3179,4.3177,4.3102,4.3091,4.3081,4.3069,4.3182,4.3182,4.3255,4.3256,4.3256]}]]